User: anonymous   Login
Location: Peebles
(55.6412°N, 3.1714°W)
Time: 23:41:01
(UTC+00:00)
Language:

IGS 5A - Orbit

View from above orbital plane
View from above orbital plane
View from above satellite
View from above satellite

Ground track
Ground track

The orbit data is extracted from the following two-line orbital elements,

1 36104U 09066A   21278.79193982 0.00000600  00000-0  56346-4 0    00
2 36104  97.5193 328.8692 0002117  45.6891 314.2787 14.94021845    02
Epoch (UTC): 05 October 2021 19:00:23
Eccentricity: 0.0002117
inclination: 97.5193°
perigee height: 584 km
apogee height: 587 km
right ascension of ascending node: 328.8692°
argument of perigee: 45.6891°
revolutions per day: 14.94021845
mean anomaly at epoch: 314.2787°
orbit number at epoch: 0

The dashed part of the orbit path shows where the satellite is in the earth's shadow,  

DLR